| time (UTC) | temp F | wind direction | speed MPH | gust MPH | rain 1hr in | rain 24hr in | rain mn in | humidity % | barometer mb |
| 20260503183534 | 75 | 18 | 9.0 | 15.0 | 0.00 | 0.03 | 0.03 | 70 | 1016.7 |
| 20260503182529 | 75 | 44 | 7.0 | 14.0 | 0.00 | 0.03 | 0.03 | 70 | 1016.9 |
| 20260503181459 | 74 | 31 | 6.0 | 13.0 | 0.00 | 0.03 | 0.03 | 69 | 1016.8 |
| 20260503180444 | 74 | 65 | 6.0 | 13.0 | 0.00 | 0.03 | 0.03 | 70 | 1017.1 |
| 20260503173217 | 74 | 355 | 7.0 | 17.0 | 0.00 | 0.03 | 0.03 | 69 | 1017.1 |
| 20260503172212 | 74 | 17 | 7.0 | 17.0 | 0.00 | 0.03 | 0.03 | 70 | 1017.0 |
| 20260503171216 | 74 | 49 | 7.0 | 13.0 | 0.00 | 0.03 | 0.03 | 69 | 1016.9 |
| 20260503170220 | 74 | 46 | 8.0 | 14.0 | 0.00 | 0.03 | 0.03 | 69 | 1017.0 |
| 20260503130629 | 73 | 31 | 11.0 | 19.0 | 0.00 | 0.02 | 0.02 | 73 | 1015.8 |
| 20260503110423 | 69 | 41 | 8.0 | 14.0 | 0.00 | 0.02 | 0.02 | 84 | 1014.9 |
| 20260503090233 | 70 | 330 | 7.0 | 11.0 | 0.08 | 0.02 | 0.02 | 83 | 1014.0 |
| 20260503072812 | 70 | 344 | 9.0 | 15.0 | 0.00 | 0.00 | 0.00 | 84 | 1013.5 |
| 20260503071822 | 71 | 343 | 10.0 | 16.0 | 0.00 | 0.00 | 0.00 | 84 | 1013.3 |
| 20260503070835 | 71 | 342 | 9.0 | 17.0 | 0.00 | 0.00 | 0.00 | 84 | 1013.4 |
| 20260503054348 | 74 | 290 | 12.0 | 14.0 | 0.00 | 0.00 | 0.00 | 80 | 1013.6 |
| 20260503053342 | 74 | 275 | 12.0 | 16.0 | 0.00 | 0.00 | 0.00 | 80 | 1013.5 |
| 20260503052321 | 74 | 281 | 12.0 | 16.0 | 0.00 | 0.00 | 0.00 | 79 | 1013.5 |
| 20260503051334 | 75 | 281 | 11.0 | 14.0 | 0.00 | 0.00 | 0.00 | 78 | 1013.6 |
| 20260503050324 | 75 | 281 | 11.0 | 15.0 | 0.00 | 0.00 | 0.00 | 77 | 1013.6 |
| 20260503045331 | 75 | 284 | 12.0 | 16.0 | 0.00 | 0.00 | 0.00 | 77 | 1013.3 |
| 20260503044344 | 75 | 265 | 13.0 | 16.0 | 0.00 | 0.00 | 0.00 | 77 | 1013.4 |
| 20260503043351 | 75 | 263 | 12.0 | 15.0 | 0.00 | 0.00 | 0.00 | 78 | 1013.2 |
| 20260503042404 | 75 | 272 | 11.0 | 15.0 | 0.00 | 0.00 | 0.00 | 79 | 1012.9 |
| 20260503041402 | 75 | 267 | 11.0 | 14.0 | 0.00 | 0.00 | 0.00 | 80 | 1013.1 |
| 20260503035254 | 75 | 272 | 12.0 | 16.0 | 0.00 | 0.00 | 0.00 | 80 | 1013.3 |
| 20260503034231 | 75 | 270 | 12.0 | 16.0 | 0.00 | 0.00 | 0.00 | 79 | 1013.0 |
| 20260503032133 | 75 | 283 | 12.0 | 16.0 | 0.00 | 0.00 | 0.00 | 78 | 1012.7 |
| 20260503031123 | 75 | 284 | 11.0 | 15.0 | 0.00 | 0.00 | 0.00 | 79 | 1012.4 |
| 20260503023917 | 76 | 293 | 11.0 | 18.0 | 0.00 | 0.00 | 0.00 | 79 | 1012.1 |
| 20260503022928 | 76 | 308 | 14.0 | 18.0 | 0.00 | 0.00 | 0.00 | 79 | 1012.1 |
| 20260503021935 | 76 | 305 | 13.0 | 17.0 | 0.00 | 0.00 | 0.00 | 80 | 1011.9 |
| 20260503020919 | 77 | 313 | 11.0 | 14.0 | 0.00 | 0.00 | 0.00 | 78 | 1011.6 |
| 20260503014811 | 77 | 275 | 9.0 | 13.0 | 0.00 | 0.00 | 0.00 | 76 | 1011.1 |
| 20260503013833 | 78 | 284 | 9.0 | 13.0 | 0.00 | 0.00 | 0.00 | 74 | 1011.1 |
| 20260503012806 | 77 | 265 | 4.0 | 8.0 | 0.00 | 0.00 | 0.00 | 73 | 1010.0 |
| 20260503011759 | 77 | 225 | 5.0 | 14.0 | 0.00 | 0.00 | 0.00 | 73 | 1009.8 |
| 20260503010736 | 78 | 220 | 11.0 | 20.0 | 0.00 | 0.00 | 0.00 | 73 | 1010.2 |
| 20260503005729 | 78 | 205 | 15.0 | 20.0 | 0.00 | 0.00 | 0.00 | 73 | 1010.3 |
| 20260503004735 | 78 | 198 | 13.0 | 19.0 | 0.00 | 0.00 | 0.00 | 72 | 1010.2 |
| 20260503003712 | 78 | 215 | 12.0 | 18.0 | 0.00 | 0.00 | 0.00 | 72 | 1010.1 |
| 20260503002637 | 78 | 200 | 6.0 | 12.0 | 0.00 | 0.00 | 0.00 | 71 | 1009.8 |
| 20260503001640 | 78 | 247 | 8.0 | 16.0 | 0.00 | 0.00 | 0.00 | 71 | 1009.7 |
| 20260503000638 | 78 | 219 | 13.0 | 20.0 | 0.00 | 0.00 | 0.00 | 71 | 1010.6 |
| 20260502235632 | 78 | 239 | 15.0 | 20.0 | 0.00 | 0.00 | 0.00 | 71 | 1011.0 |
| 20260502234617 | 78 | 242 | 15.0 | 20.0 | 0.00 | 0.00 | 0.00 | 72 | 1011.0 |
| 20260502233606 | 78 | 271 | 17.0 | 22.0 | 0.00 | 0.00 | 0.00 | 72 | 1010.8 |
| 20260502232552 | 78 | 265 | 15.0 | 22.0 | 0.00 | 0.00 | 0.00 | 71 | 1011.0 |
| 20260502231605 | 78 | 249 | 16.0 | 22.0 | 0.00 | 0.00 | 0.00 | 70 | 1010.6 |
| 20260502225442 | 78 | 278 | 15.0 | 19.0 | 0.00 | 0.00 | 0.00 | 70 | 1010.4 |
| 20260502222142 | 78 | 279 | 11.0 | 15.0 | 0.00 | 0.00 | 0.00 | 69 | 1010.0 |
| 20260502221203 | 78 | 286 | 13.0 | 23.0 | 0.00 | 0.00 | 0.00 | 70 | 1010.0 |
| 20260502220130 | 78 | 277 | 17.0 | 23.0 | 0.00 | 0.00 | 0.00 | 69 | 1010.1 |
| 20260502213918 | 79 | 296 | 20.0 | 30.0 | 0.00 | 0.00 | 0.00 | 69 | 1010.2 |
| 20260502212856 | 79 | 290 | 28.0 | 38.0 | 0.00 | 0.00 | 0.00 | 67 | 1010.3 |
| 20260502211851 | 79 | 317 | 23.0 | 38.0 | 0.00 | 0.00 | 0.00 | 66 | 1010.4 |
| 20260502210906 | 86 | 298 | 15.0 | 27.0 | 0.00 | 0.00 | 0.00 | 62 | 1009.8 |
| 20260502204650 | 86 | 279 | 18.0 | 26.0 | 0.00 | 0.00 | 0.00 | 59 | 1009.5 |
| 20260502203711 | 87 | 282 | 15.0 | 19.0 | 0.00 | 0.00 | 0.00 | 60 | 1009.4 |
| 20260502202729 | 87 | 275 | 15.0 | 22.0 | 0.00 | 0.00 | 0.00 | 61 | 1009.4 |
| 20260502201726 | 87 | 272 | 15.0 | 22.0 | 0.00 | 0.00 | 0.00 | 58 | 1009.3 |
| 20260502200742 | 87 | 278 | 14.0 | 21.0 | 0.00 | 0.00 | 0.00 | 59 | 1009.3 |
| 20260502195756 | 88 | 273 | 15.0 | 21.0 | 0.00 | 0.00 | 0.00 | 56 | 1009.2 |
| 20260502194804 | 87 | 265 | 10.0 | 16.0 | 0.00 | 0.00 | 0.00 | 58 | 1009.4 |
| 20260502192638 | 87 | 275 | 15.0 | 25.0 | 0.00 | 0.00 | 0.00 | 62 | 1009.8 |
| 20260502191604 | 88 | 279 | 18.0 | 25.0 | 0.00 | 0.00 | 0.00 | 56 | 1009.7 |
| 20260502185436 | 88 | 266 | 13.0 | 18.0 | 0.00 | 0.00 | 0.00 | 58 | 1009.8 |